This is the latest recevied weather packets stored in our database for station/object WA3NOA-2. If no packets are shown the sender has not sent any weather packets the latest 1 day(s).
| Time | Temp. | Humidity | Pressure | Rain* | Wind** | Luminosity | Snow |
|---|---|---|---|---|---|---|---|
| 1778033526 | 21.11° C | 55% | 1003.7 hPa | 0 mm | 1.34 m/s, 236° | - | - |
| 1778033226 | 21.11° C | 54% | 1003.8 hPa | 0 mm | 3.13 m/s, 236° | - | - |
| 1778032988 | 21.11° C | 54% | 1003.7 hPa | 0 mm | 0.45 m/s, 178° | - | - |
| 1778032926 | 21.11° C | 54% | 1003.7 hPa | 0 mm | 0 m/s | - | - |
| 1778032626 | 21.67° C | 54% | 1003.6 hPa | 0 mm | 1.34 m/s, 275° | - | - |
| 1778032326 | 21.67° C | 53% | 1003.6 hPa | 0 mm | 0.45 m/s, 192° | - | - |
| 1778032088 | 21.67° C | 53% | 1003.5 hPa | 0 mm | 3.58 m/s, 229° | - | - |
| 1778032026 | 21.67° C | 53% | 1003.5 hPa | 0 mm | 1.34 m/s, 259° | - | - |
| 1778031726 | 21.67° C | 52% | 1003.5 hPa | 0 mm | 3.13 m/s, 258° | - | - |
| 1778031426 | 21.67° C | 52% | 1003.5 hPa | 0 mm | 0.45 m/s, 290° | - | - |
| 1778031188 | 21.67° C | 52% | 1003.5 hPa | 0 mm | 0.45 m/s, 259° | - | - |
| 1778031126 | 21.67° C | 52% | 1003.6 hPa | 0 mm | 0.89 m/s, 269° | - | - |
| 1778030826 | 22.22° C | 51% | 1003.5 hPa | 0 mm | 1.34 m/s, 234° | - | - |
| 1778030526 | 22.22° C | 51% | 1003.4 hPa | 0 mm | 0.89 m/s, 289° | - | - |
| 1778030288 | 22.22° C | 51% | 1003.4 hPa | 0 mm | 0.45 m/s, 267° | - | - |
| 1778030226 | 22.22° C | 50% | 1003.4 hPa | 0 mm | 1.79 m/s, 257° | - | - |
| 1778029926 | 22.22° C | 50% | 1003.3 hPa | 0 mm | 0.89 m/s, 316° | - | - |
| 1778029626 | 22.22° C | 50% | 1003.3 hPa | 0 mm | 1.79 m/s, 281° | - | - |
| 1778029388 | 22.22° C | 50% | 1003.3 hPa | 0 mm | 0.45 m/s, 275° | - | - |
| 1778029326 | 22.22° C | 49% | 1003.4 hPa | 0 mm | 1.34 m/s, 271° | - | - |
| 1778029026 | 22.78° C | 49% | 1003.2 hPa | 0 mm | 1.34 m/s, 295° | - | - |
| 1778028726 | 22.78° C | 49% | 1003.3 hPa | 0 mm | 1.34 m/s, 272° | - | - |
| 1778028487 | 22.78° C | 48% | 1003.2 hPa | 0 mm | 0.89 m/s, 263° | - | - |
| 1778028426 | 22.78° C | 48% | 1003.1 hPa | 0 mm | 0.45 m/s, 5° | - | - |
| 1778028126 | 22.78° C | 48% | 1003 hPa | 0 mm | 2.68 m/s, 266° | - | - |
* Rain latest hour (hover to see other rain measurements)
** Current wind speed in m/s (hover to see current wind gust speed)